contact:dominique.lefevre@mio.osupytheas.fr, maurice.libes@osupytheas.fr, didier.mallarino@osupytheas.fr
Project:EMSO http://www.emso-fr.org/EMSO-France
Depth: 2436.0 m
Title:EMSO Ligure Ouest : Data MII capteur MICROCAT
DateTime_Computer,Latitude,Longitude,Temperature,Conductivity,Pressure,DateTime_Instrument
DateTime_Computer,Latitude,Longitude,degC,S m-1,dbar,DateTime_Instrument
2017-10-23T00:00:06Z,42.805,6.029,13.2991,4.60007,2471.979,2017-10-23T02:01:31Z
2017-10-23T00:01:41Z,42.805,6.029,13.2988,4.60006,2471.934,2017-10-23T02:03:06Z
2017-10-23T00:03:16Z,42.805,6.029,13.2992,4.60006,2471.919,2017-10-23T02:04:41Z
2017-10-23T00:04:51Z,42.805,6.029,13.2983,4.60046,2471.934,2017-10-23T02:06:16Z
2017-10-23T00:06:25Z,42.805,6.029,13.2986,4.60010,2471.942,2017-10-23T02:07:51Z
2017-10-23T00:08:00Z,42.805,6.029,13.2993,4.60015,2471.934,2017-10-23T02:09:26Z
2017-10-23T00:09:35Z,42.805,6.029,13.3007,4.60008,2471.957,2017-10-23T02:11:00Z
2017-10-23T00:11:10Z,42.805,6.029,13.2991,4.60012,2471.934,2017-10-23T02:12:35Z
2017-10-23T00:12:45Z,42.805,6.029,13.2996,4.60025,2471.949,2017-10-23T02:14:10Z
2017-10-23T00:14:20Z,42.805,6.029,13.2990,4.60030,2471.934,2017-10-23T02:15:45Z
2017-10-23T00:15:54Z,42.805,6.029,13.2988,4.60027,2471.934,2017-10-23T02:17:20Z
2017-10-23T00:17:29Z,42.805,6.029,13.3004,4.60010,2471.919,2017-10-23T02:18:55Z
2017-10-23T00:19:04Z,42.805,6.029,13.3026,4.60016,2471.934,2017-10-23T02:20:29Z
2017-10-23T00:20:39Z,42.805,6.029,13.3019,4.60012,2471.897,2017-10-23T02:22:04Z
2017-10-23T00:22:14Z,42.805,6.029,13.3007,4.60026,2471.934,2017-10-23T02:23:39Z
2017-10-23T00:23:49Z,42.805,6.029,13.2998,4.60019,2471.919,2017-10-23T02:25:14Z
2017-10-23T00:25:23Z,42.805,6.029,13.2993,4.60023,2471.912,2017-10-23T02:26:49Z
2017-10-23T00:26:58Z,42.805,6.029,13.2984,4.60009,2471.912,2017-10-23T02:28:24Z
2017-10-23T00:28:33Z,42.805,6.029,13.3029,4.60009,2471.897,2017-10-23T02:29:58Z
2017-10-23T00:30:08Z,42.805,6.029,13.3031,4.60012,2471.897,2017-10-23T02:31:33Z
2017-10-23T00:31:43Z,42.805,6.029,13.2997,4.60003,2471.934,2017-10-23T02:33:08Z
2017-10-23T00:33:18Z,42.805,6.029,13.2945,4.60004,2471.912,2017-10-23T02:34:43Z
2017-10-23T00:34:52Z,42.805,6.029,13.2938,4.60023,2471.919,2017-10-23T02:36:18Z
2017-10-23T00:36:27Z,42.805,6.029,13.2939,4.60043,2471.934,2017-10-23T02:37:53Z
2017-10-23T00:38:02Z,42.805,6.029,13.2936,4.60040,2471.934,2017-10-23T02:39:27Z
2017-10-23T00:39:37Z,42.805,6.029,13.2939,4.60021,2471.919,2017-10-23T02:41:02Z
2017-10-23T00:41:12Z,42.805,6.029,13.2939,4.59998,2471.957,2017-10-23T02:42:37Z
2017-10-23T00:42:47Z,42.805,6.029,13.2943,4.59998,2471.889,2017-10-23T02:44:12Z
2017-10-23T00:44:22Z,42.805,6.029,13.2940,4.59984,2471.912,2017-10-23T02:45:47Z
2017-10-23T00:45:56Z,42.805,6.029,13.2935,4.59974,2471.912,2017-10-23T02:47:22Z
2017-10-23T00:47:31Z,42.805,6.029,13.2935,4.59977,2471.934,2017-10-23T02:48:56Z
2017-10-23T00:49:06Z,42.805,6.029,13.2940,4.59972,2471.897,2017-10-23T02:50:31Z
2017-10-23T00:50:41Z,42.805,6.029,13.2940,4.59974,2471.934,2017-10-23T02:52:06Z
2017-10-23T00:52:16Z,42.805,6.029,13.2940,4.59977,2471.934,2017-10-23T02:53:41Z
2017-10-23T00:53:51Z,42.805,6.029,13.2939,4.59970,2471.897,2017-10-23T02:55:16Z
2017-10-23T00:55:25Z,42.805,6.029,13.2943,4.59970,2471.897,2017-10-23T02:56:51Z
2017-10-23T00:57:00Z,42.805,6.029,13.2933,4.59967,2471.919,2017-10-23T02:58:25Z
2017-10-23T00:58:35Z,42.805,6.029,13.2940,4.59971,2471.934,2017-10-23T03:00:00Z
2017-10-23T01:00:10Z,42.805,6.029,13.2940,4.59966,2471.934,2017-10-23T03:01:35Z
2017-10-23T01:01:45Z,42.805,6.029,13.2939,4.59967,2471.912,2017-10-23T03:03:10Z
2017-10-23T01:03:20Z,42.805,6.029,13.2935,4.59970,2471.897,2017-10-23T03:04:45Z
2017-10-23T01:04:54Z,42.805,6.029,13.2935,4.59976,2471.889,2017-10-23T03:06:20Z
2017-10-23T01:06:29Z,42.805,6.029,13.2940,4.59975,2471.912,2017-10-23T03:07:55Z
2017-10-23T01:08:04Z,42.805,6.029,13.2935,4.59975,2471.889,2017-10-23T03:09:29Z
2017-10-23T01:09:39Z,42.805,6.029,13.2936,4.59975,2471.889,2017-10-23T03:11:04Z
2017-10-23T01:11:14Z,42.805,6.029,13.2938,4.59975,2471.912,2017-10-23T03:12:39Z
2017-10-23T01:12:49Z,42.805,6.029,13.2937,4.59975,2471.934,2017-10-23T03:14:14Z
2017-10-23T01:14:23Z,42.805,6.029,13.2936,4.59972,2471.897,2017-10-23T03:15:49Z
2017-10-23T01:15:58Z,42.805,6.029,13.2937,4.59975,2471.927,2017-10-23T03:17:24Z
2017-10-23T01:17:33Z,42.805,6.029,13.2939,4.59972,2471.912,2017-10-23T03:18:58Z
2017-10-23T01:19:08Z,42.805,6.029,13.2934,4.59968,2471.889,2017-10-23T03:20:33Z
2017-10-23T01:20:43Z,42.805,6.029,13.2942,4.59972,2471.912,2017-10-23T03:22:08Z
2017-10-23T01:22:18Z,42.805,6.029,13.2940,4.59972,2471.912,2017-10-23T03:23:43Z
2017-10-23T01:23:52Z,42.805,6.029,13.2936,4.59970,2471.897,2017-10-23T03:25:18Z
2017-10-23T01:25:27Z,42.805,6.029,13.2937,4.59971,2471.874,2017-10-23T03:26:53Z
2017-10-23T01:27:02Z,42.805,6.029,13.2939,4.59974,2471.897,2017-10-23T03:28:27Z
2017-10-23T01:28:37Z,42.805,6.029,13.2939,4.59975,2471.874,2017-10-23T03:30:02Z
2017-10-23T01:30:12Z,42.805,6.029,13.2935,4.59970,2471.934,2017-10-23T03:31:37Z
2017-10-23T01:31:47Z,42.805,6.029,13.2936,4.59973,2471.897,2017-10-23T03:33:12Z
2017-10-23T01:33:21Z,42.805,6.029,13.2939,4.59971,2471.889,2017-10-23T03:34:47Z
2017-10-23T01:34:56Z,42.805,6.029,13.2935,4.59972,2471.874,2017-10-23T03:36:22Z
2017-10-23T01:36:31Z,42.805,6.029,13.2939,4.59975,2471.889,2017-10-23T03:37:56Z
2017-10-23T01:38:06Z,42.805,6.029,13.2938,4.59970,2471.912,2017-10-23T03:39:31Z
2017-10-23T01:39:41Z,42.805,6.029,13.2935,4.59973,2471.889,2017-10-23T03:41:06Z
2017-10-23T01:41:16Z,42.805,6.029,13.2933,4.59973,2471.897,2017-10-23T03:42:41Z
2017-10-23T01:42:50Z,42.805,6.029,13.2935,4.59973,2471.889,2017-10-23T03:44:16Z
2017-10-23T01:44:25Z,42.805,6.029,13.2935,4.59972,2471.874,2017-10-23T03:45:51Z
2017-10-23T01:46:00Z,42.805,6.029,13.2935,4.59970,2471.912,2017-10-23T03:47:25Z
2017-10-23T01:47:35Z,42.805,6.029,13.2937,4.59971,2471.912,2017-10-23T03:49:00Z
2017-10-23T01:49:10Z,42.805,6.029,13.2937,4.59975,2471.912,2017-10-23T03:50:35Z
2017-10-23T01:50:45Z,42.805,6.029,13.2935,4.59974,2471.889,2017-10-23T03:52:10Z
2017-10-23T01:52:19Z,42.805,6.029,13.2938,4.59981,2471.912,2017-10-23T03:53:45Z
2017-10-23T01:53:54Z,42.805,6.029,13.2940,4.59985,2471.874,2017-10-23T03:55:20Z
2017-10-23T01:55:29Z,42.805,6.029,13.2936,4.59981,2471.874,2017-10-23T03:56:54Z
2017-10-23T01:57:04Z,42.805,6.029,13.2939,4.59982,2471.889,2017-10-23T03:58:29Z
2017-10-23T01:58:39Z,42.805,6.029,13.2936,4.59978,2471.912,2017-10-23T04:00:04Z
2017-10-23T02:00:14Z,42.805,6.029,13.2937,4.59985,2471.852,2017-10-23T04:01:39Z
2017-10-23T02:01:48Z,42.805,6.029,13.2937,4.59983,2471.889,2017-10-23T04:03:14Z
2017-10-23T02:03:23Z,42.805,6.029,13.2934,4.59979,2471.912,2017-10-23T04:04:49Z
2017-10-23T02:04:58Z,42.805,6.029,13.2936,4.59978,2471.897,2017-10-23T04:06:23Z
2017-10-23T02:06:33Z,42.805,6.029,13.2937,4.59975,2471.874,2017-10-23T04:07:58Z
2017-10-23T02:08:08Z,42.805,6.029,13.2936,4.59975,2471.874,2017-10-23T04:09:33Z
2017-10-23T02:09:43Z,42.805,6.029,13.2940,4.59981,2471.874,2017-10-23T04:11:08Z
2017-10-23T02:11:17Z,42.805,6.029,13.2933,4.59977,2471.889,2017-10-23T04:12:43Z
2017-10-23T02:12:52Z,42.805,6.029,13.2940,4.59979,2471.889,2017-10-23T04:14:18Z
2017-10-23T02:14:27Z,42.805,6.029,13.2935,4.59984,2471.897,2017-10-23T04:15:52Z
2017-10-23T02:16:02Z,42.805,6.029,13.2939,4.59983,2471.874,2017-10-23T04:17:27Z
2017-10-23T02:17:37Z,42.805,6.029,13.2933,4.59975,2471.874,2017-10-23T04:19:02Z
2017-10-23T02:19:12Z,42.805,6.029,13.2939,4.59975,2471.889,2017-10-23T04:20:37Z
2017-10-23T02:20:46Z,42.805,6.029,13.2934,4.59972,2471.852,2017-10-23T04:22:12Z
2017-10-23T02:22:21Z,42.805,6.029,13.2937,4.59984,2471.866,2017-10-23T04:23:47Z
2017-10-23T02:23:56Z,42.805,6.029,13.2935,4.59979,2471.866,2017-10-23T04:25:21Z
2017-10-23T02:25:31Z,42.805,6.029,13.2934,4.59977,2471.874,2017-10-23T04:26:56Z
2017-10-23T02:27:06Z,42.805,6.029,13.2936,4.59976,2471.889,2017-10-23T04:28:31Z
2017-10-23T02:28:41Z,42.805,6.029,13.2940,4.59978,2471.852,2017-10-23T04:30:06Z
2017-10-23T02:30:15Z,42.805,6.029,13.2937,4.59984,2471.889,2017-10-23T04:31:41Z
2017-10-23T02:31:50Z,42.805,6.029,13.2939,4.59981,2471.866,2017-10-23T04:33:16Z
2017-10-23T02:33:25Z,42.805,6.029,13.2936,4.59984,2471.852,2017-10-23T04:34:50Z
2017-10-23T02:35:00Z,42.805,6.029,13.2936,4.59983,2471.866,2017-10-23T04:36:25Z
2017-10-23T02:36:35Z,42.805,6.029,13.2938,4.59985,2471.912,2017-10-23T04:38:00Z
2017-10-23T02:38:10Z,42.805,6.029,13.2935,4.59987,2471.889,2017-10-23T04:39:35Z
2017-10-23T02:39:45Z,42.805,6.029,13.2942,4.59977,2471.866,2017-10-23T04:41:10Z
2017-10-23T02:41:19Z,42.805,6.029,13.2939,4.59988,2471.852,2017-10-23T04:42:45Z
2017-10-23T02:42:54Z,42.805,6.029,13.2936,4.59986,2471.874,2017-10-23T04:44:19Z
2017-10-23T02:44:29Z,42.805,6.029,13.2933,4.59992,2471.852,2017-10-23T04:45:54Z
2017-10-23T02:46:04Z,42.805,6.029,13.2937,4.59990,2471.874,2017-10-23T04:47:29Z
2017-10-23T02:47:39Z,42.805,6.029,13.2939,4.59987,2471.874,2017-10-23T04:49:04Z
2017-10-23T02:49:14Z,42.805,6.029,13.2936,4.59990,2471.829,2017-10-23T04:50:39Z
2017-10-23T02:50:48Z,42.805,6.029,13.2939,4.59988,2471.852,2017-10-23T04:52:14Z
2017-10-23T02:52:23Z,42.805,6.029,13.2933,4.59987,2471.844,2017-10-23T04:53:49Z
2017-10-23T02:53:58Z,42.805,6.029,13.2936,4.59987,2471.866,2017-10-23T04:55:23Z
2017-10-23T02:55:33Z,42.805,6.029,13.2938,4.59981,2471.889,2017-10-23T04:56:58Z
2017-10-23T02:57:08Z,42.805,6.029,13.2935,4.59984,2471.866,2017-10-23T04:58:33Z
2017-10-23T02:58:43Z,42.805,6.029,13.2935,4.59982,2471.866,2017-10-23T05:00:08Z
2017-10-23T03:00:17Z,42.805,6.029,13.2939,4.59982,2471.866,2017-10-23T05:01:43Z
2017-10-23T03:01:52Z,42.805,6.029,13.2940,4.59990,2471.874,2017-10-23T05:03:18Z
2017-10-23T03:03:27Z,42.805,6.029,13.2939,4.59990,2471.852,2017-10-23T05:04:52Z
2017-10-23T03:05:02Z,42.805,6.029,13.2935,4.59986,2471.844,2017-10-23T05:06:27Z
2017-10-23T03:06:37Z,42.805,6.029,13.2937,4.59993,2471.852,2017-10-23T05:08:02Z
2017-10-23T03:08:12Z,42.805,6.029,13.2939,4.59995,2471.889,2017-10-23T05:09:37Z
2017-10-23T03:09:46Z,42.805,6.029,13.2937,4.59985,2471.866,2017-10-23T05:11:12Z
2017-10-23T03:11:21Z,42.805,6.029,13.2939,4.59975,2471.874,2017-10-23T05:12:47Z
2017-10-23T03:12:56Z,42.805,6.029,13.2937,4.59972,2471.866,2017-10-23T05:14:21Z
2017-10-23T03:14:31Z,42.805,6.029,13.2937,4.59984,2471.889,2017-10-23T05:15:56Z
2017-10-23T03:16:06Z,42.805,6.029,13.2937,4.59982,2471.852,2017-10-23T05:17:31Z
2017-10-23T03:17:41Z,42.805,6.029,13.2942,4.59981,2471.852,2017-10-23T05:19:06Z
2017-10-23T03:19:15Z,42.805,6.029,13.2935,4.59979,2471.852,2017-10-23T05:20:41Z
2017-10-23T03:20:50Z,42.805,6.029,13.2937,4.59979,2471.852,2017-10-23T05:22:16Z
2017-10-23T03:22:25Z,42.805,6.029,13.2935,4.59982,2471.866,2017-10-23T05:23:50Z
2017-10-23T03:24:00Z,42.805,6.029,13.2938,4.59974,2471.852,2017-10-23T05:25:25Z
2017-10-23T03:25:35Z,42.805,6.029,13.2939,4.59980,2471.866,2017-10-23T05:27:00Z
2017-10-23T03:27:10Z,42.805,6.029,13.2937,4.59984,2471.866,2017-10-23T05:28:35Z
2017-10-23T03:28:44Z,42.805,6.029,13.2940,4.59985,2471.866,2017-10-23T05:30:10Z
2017-10-23T03:30:19Z,42.805,6.029,13.2936,4.59984,2471.866,2017-10-23T05:31:45Z
2017-10-23T03:31:54Z,42.805,6.029,13.2937,4.59986,2471.866,2017-10-23T05:33:19Z
2017-10-23T03:33:29Z,42.805,6.029,13.2938,4.59987,2471.866,2017-10-23T05:34:54Z
2017-10-23T03:35:04Z,42.805,6.029,13.2940,4.59989,2471.866,2017-10-23T05:36:29Z
2017-10-23T03:36:39Z,42.805,6.029,13.2939,4.59990,2471.889,2017-10-23T05:38:04Z
2017-10-23T03:38:13Z,42.805,6.029,13.2941,4.59989,2471.874,2017-10-23T05:39:39Z
2017-10-23T03:39:48Z,42.805,6.029,13.2936,4.59997,2471.874,2017-10-23T05:41:14Z
2017-10-23T03:41:23Z,42.805,6.029,13.2939,4.59991,2471.874,2017-10-23T05:42:48Z
2017-10-23T03:42:58Z,42.805,6.029,13.2939,4.59982,2471.889,2017-10-23T05:44:23Z
2017-10-23T03:44:33Z,42.805,6.029,13.2937,4.59995,2471.874,2017-10-23T05:45:58Z
2017-10-23T03:46:08Z,42.805,6.029,13.2935,4.59994,2471.889,2017-10-23T05:47:33Z
2017-10-23T03:47:42Z,42.805,6.029,13.2932,4.59987,2471.844,2017-10-23T05:49:08Z
2017-10-23T03:49:17Z,42.805,6.029,13.2938,4.59992,2471.866,2017-10-23T05:50:43Z
2017-10-23T03:50:52Z,42.805,6.029,13.2933,4.59990,2471.866,2017-10-23T05:52:17Z
2017-10-23T03:52:27Z,42.805,6.029,13.2937,4.59990,2471.889,2017-10-23T05:53:52Z
2017-10-23T03:54:02Z,42.805,6.029,13.2939,4.59989,2471.829,2017-10-23T05:55:27Z
2017-10-23T03:55:37Z,42.805,6.029,13.2938,4.59993,2471.866,2017-10-23T05:57:02Z
2017-10-23T03:57:11Z,42.805,6.029,13.2936,4.59998,2471.889,2017-10-23T05:58:37Z
2017-10-23T03:58:46Z,42.805,6.029,13.2936,4.59996,2471.889,2017-10-23T06:00:12Z
2017-10-23T04:00:21Z,42.805,6.029,13.2939,4.59992,2471.889,2017-10-23T06:01:46Z
2017-10-23T04:01:56Z,42.805,6.029,13.2934,4.59991,2471.866,2017-10-23T06:03:21Z
2017-10-23T04:03:31Z,42.805,6.029,13.2937,4.59998,2471.844,2017-10-23T06:04:56Z
2017-10-23T04:05:06Z,42.805,6.029,13.2935,4.59999,2471.866,2017-10-23T06:06:31Z
2017-10-23T04:06:40Z,42.805,6.029,13.2939,4.60002,2471.874,2017-10-23T06:08:06Z
2017-10-23T04:08:15Z,42.805,6.029,13.2942,4.60001,2471.889,2017-10-23T06:09:41Z
2017-10-23T04:09:50Z,42.805,6.029,13.2939,4.59998,2471.889,2017-10-23T06:11:15Z
2017-10-23T04:11:25Z,42.805,6.029,13.2942,4.59998,2471.852,2017-10-23T06:12:50Z
2017-10-23T04:13:00Z,42.805,6.029,13.2943,4.60002,2471.852,2017-10-23T06:14:25Z
2017-10-23T04:14:35Z,42.805,6.029,13.2939,4.59998,2471.874,2017-10-23T06:16:00Z
2017-10-23T04:16:09Z,42.805,6.029,13.2940,4.59998,2471.852,2017-10-23T06:17:35Z
2017-10-23T04:17:44Z,42.805,6.029,13.2939,4.59999,2471.852,2017-10-23T06:19:10Z
2017-10-23T04:19:19Z,42.805,6.029,13.2940,4.60002,2471.852,2017-10-23T06:20:44Z
2017-10-23T04:20:54Z,42.805,6.029,13.2939,4.59998,2471.852,2017-10-23T06:22:19Z
2017-10-23T04:22:29Z,42.805,6.029,13.2940,4.59998,2471.874,2017-10-23T06:23:54Z
2017-10-23T04:24:04Z,42.805,6.029,13.2936,4.59996,2471.866,2017-10-23T06:25:29Z
2017-10-23T04:25:38Z,42.805,6.029,13.2935,4.60002,2471.852,2017-10-23T06:27:04Z
2017-10-23T04:27:13Z,42.805,6.029,13.2939,4.59999,2471.889,2017-10-23T06:28:39Z
2017-10-23T04:28:48Z,42.805,6.029,13.2938,4.59995,2471.889,2017-10-23T06:30:13Z
2017-10-23T04:30:23Z,42.805,6.029,13.2934,4.59991,2471.874,2017-10-23T06:31:48Z
2017-10-23T04:31:58Z,42.805,6.029,13.2934,4.59990,2471.866,2017-10-23T06:33:23Z
2017-10-23T04:33:33Z,42.805,6.029,13.2937,4.59988,2471.889,2017-10-23T06:34:58Z
2017-10-23T04:35:07Z,42.805,6.029,13.2940,4.59986,2471.866,2017-10-23T06:36:33Z
2017-10-23T04:36:42Z,42.805,6.029,13.2939,4.59986,2471.889,2017-10-23T06:38:08Z
2017-10-23T04:38:17Z,42.805,6.029,13.2935,4.59985,2471.866,2017-10-23T06:39:42Z
2017-10-23T04:39:52Z,42.805,6.029,13.2934,4.59986,2471.852,2017-10-23T06:41:17Z
2017-10-23T04:41:27Z,42.805,6.029,13.2939,4.59987,2471.874,2017-10-23T06:42:52Z
2017-10-23T04:43:02Z,42.805,6.029,13.2936,4.59990,2471.866,2017-10-23T06:44:27Z
2017-10-23T04:44:37Z,42.805,6.029,13.2938,4.59992,2471.912,2017-10-23T06:46:02Z
2017-10-23T04:46:11Z,42.805,6.029,13.2939,4.59992,2471.874,2017-10-23T06:47:37Z
2017-10-23T04:47:46Z,42.805,6.029,13.2941,4.59990,2471.889,2017-10-23T06:49:12Z
2017-10-23T04:49:21Z,42.805,6.029,13.2939,4.59993,2471.889,2017-10-23T06:50:46Z
2017-10-23T04:50:56Z,42.805,6.029,13.2933,4.59992,2471.866,2017-10-23T06:52:21Z
2017-10-23T04:52:31Z,42.805,6.029,13.2935,4.59989,2471.889,2017-10-23T06:53:56Z
2017-10-23T04:54:06Z,42.805,6.029,13.2942,4.59974,2471.912,2017-10-23T06:55:31Z
2017-10-23T04:55:40Z,42.805,6.029,13.2936,4.59973,2471.866,2017-10-23T06:57:06Z
2017-10-23T04:57:15Z,42.805,6.029,13.2943,4.59970,2471.852,2017-10-23T06:58:41Z
2017-10-23T04:58:50Z,42.805,6.029,13.2936,4.59973,2471.912,2017-10-23T07:00:15Z
2017-10-23T05:00:25Z,42.805,6.029,13.2943,4.59975,2471.866,2017-10-23T07:01:50Z
2017-10-23T05:02:00Z,42.805,6.029,13.2940,4.59972,2471.897,2017-10-23T07:03:25Z
2017-10-23T05:03:35Z,42.805,6.029,13.2940,4.59975,2471.889,2017-10-23T07:05:00Z
2017-10-23T05:05:09Z,42.805,6.029,13.2935,4.59980,2471.874,2017-10-23T07:06:35Z
2017-10-23T05:06:44Z,42.805,6.029,13.2933,4.59994,2471.897,2017-10-23T07:08:10Z
2017-10-23T05:08:19Z,42.805,6.029,13.2939,4.60011,2471.897,2017-10-23T07:09:44Z
2017-10-23T05:09:54Z,42.805,6.029,13.2934,4.60006,2471.866,2017-10-23T07:11:19Z
2017-10-23T05:11:29Z,42.805,6.029,13.2939,4.60005,2471.897,2017-10-23T07:12:54Z
2017-10-23T05:13:04Z,42.805,6.029,13.2938,4.59998,2471.912,2017-10-23T07:14:29Z
2017-10-23T05:14:38Z,42.805,6.029,13.2942,4.60000,2471.897,2017-10-23T07:16:04Z
2017-10-23T05:16:13Z,42.805,6.029,13.2939,4.59984,2471.874,2017-10-23T07:17:39Z
2017-10-23T05:17:48Z,42.805,6.029,13.2939,4.60007,2471.852,2017-10-23T07:19:13Z
2017-10-23T05:19:23Z,42.805,6.029,13.2935,4.60015,2471.897,2017-10-23T07:20:48Z
2017-10-23T05:20:58Z,42.805,6.029,13.2935,4.60009,2471.874,2017-10-23T07:22:23Z
2017-10-23T05:22:33Z,42.805,6.029,13.2940,4.59998,2471.904,2017-10-23T07:23:58Z
2017-10-23T05:24:07Z,42.805,6.029,13.2939,4.59997,2471.852,2017-10-23T07:25:33Z
2017-10-23T05:25:42Z,42.805,6.029,13.2939,4.59988,2471.889,2017-10-23T07:27:08Z
2017-10-23T05:27:17Z,42.805,6.029,13.2940,4.60006,2471.874,2017-10-23T07:28:42Z
2017-10-23T05:28:52Z,42.805,6.029,13.2937,4.60012,2471.912,2017-10-23T07:30:17Z
2017-10-23T05:30:27Z,42.805,6.029,13.2936,4.60002,2471.889,2017-10-23T07:31:52Z
2017-10-23T05:32:02Z,42.805,6.029,13.2940,4.60001,2471.912,2017-10-23T07:33:27Z
2017-10-23T05:33:36Z,42.805,6.029,13.2946,4.59999,2471.889,2017-10-23T07:35:02Z
2017-10-23T05:35:11Z,42.805,6.029,13.2951,4.59994,2471.889,2017-10-23T07:36:37Z
2017-10-23T05:36:46Z,42.805,6.029,13.2951,4.59983,2471.912,2017-10-23T07:38:11Z
2017-10-23T05:38:21Z,42.805,6.029,13.2957,4.59990,2471.897,2017-10-23T07:39:46Z
2017-10-23T05:39:56Z,42.805,6.029,13.2953,4.59990,2471.874,2017-10-23T07:41:21Z
2017-10-23T05:41:31Z,42.805,6.029,13.2949,4.59992,2471.874,2017-10-23T07:42:56Z
2017-10-23T05:43:05Z,42.805,6.029,13.2952,4.59999,2471.897,2017-10-23T07:44:31Z
2017-10-23T05:44:40Z,42.805,6.029,13.2950,4.59998,2471.912,2017-10-23T07:46:06Z
2017-10-23T05:46:15Z,42.805,6.029,13.2950,4.60002,2471.889,2017-10-23T07:47:40Z
2017-10-23T05:47:50Z,42.805,6.029,13.2943,4.60011,2471.897,2017-10-23T07:49:15Z
2017-10-23T05:49:25Z,42.805,6.029,13.2945,4.60019,2471.934,2017-10-23T07:50:50Z
2017-10-23T05:51:00Z,42.805,6.029,13.2950,4.60013,2471.912,2017-10-23T07:52:25Z
2017-10-23T05:52:34Z,42.805,6.029,13.2953,4.60002,2471.912,2017-10-23T07:54:00Z
2017-10-23T05:54:09Z,42.805,6.029,13.2959,4.60005,2471.889,2017-10-23T07:55:35Z
2017-10-23T05:55:44Z,42.805,6.029,13.2965,4.60000,2471.912,2017-10-23T07:57:09Z
2017-10-23T05:57:19Z,42.805,6.029,13.2973,4.59995,2471.912,2017-10-23T07:58:44Z
2017-10-23T05:58:54Z,42.805,6.029,13.2976,4.59994,2471.912,2017-10-23T08:00:19Z
2017-10-23T06:00:29Z,42.805,6.029,13.2981,4.59991,2471.934,2017-10-23T08:01:54Z
2017-10-23T06:02:03Z,42.805,6.029,13.2955,4.60001,2471.934,2017-10-23T08:03:29Z
2017-10-23T06:03:38Z,42.805,6.029,13.2954,4.60027,2471.957,2017-10-23T08:05:04Z
2017-10-23T06:05:13Z,42.805,6.029,13.2965,4.60033,2471.934,2017-10-23T08:06:38Z
2017-10-23T06:06:48Z,42.805,6.029,13.2969,4.60025,2471.934,2017-10-23T08:08:13Z
2017-10-23T06:08:23Z,42.805,6.029,13.2975,4.60026,2471.934,2017-10-23T08:09:48Z
2017-10-23T06:09:58Z,42.805,6.029,13.2976,4.60018,2471.934,2017-10-23T08:11:23Z
2017-10-23T06:11:32Z,42.805,6.029,13.2973,4.60009,2471.934,2017-10-23T08:12:58Z
2017-10-23T06:13:07Z,42.805,6.029,13.2978,4.60003,2471.934,2017-10-23T08:14:33Z
2017-10-23T06:14:42Z,42.805,6.029,13.2985,4.60010,2471.957,2017-10-23T08:16:07Z
2017-10-23T06:16:17Z,42.805,6.029,13.2991,4.60012,2471.934,2017-10-23T08:17:42Z
2017-10-23T06:17:52Z,42.805,6.029,13.2992,4.60015,2471.934,2017-10-23T08:19:17Z
2017-10-23T06:19:27Z,42.805,6.029,13.2992,4.60016,2471.942,2017-10-23T08:20:52Z
2017-10-23T06:21:01Z,42.805,6.029,13.2993,4.60018,2471.934,2017-10-23T08:22:27Z
2017-10-23T06:22:36Z,42.805,6.029,13.2989,4.60014,2471.957,2017-10-23T08:24:02Z
2017-10-23T06:24:11Z,42.805,6.029,13.2996,4.60000,2471.919,2017-10-23T08:25:36Z
2017-10-23T06:25:46Z,42.805,6.029,13.2993,4.59994,2471.942,2017-10-23T08:27:11Z
2017-10-23T06:27:21Z,42.805,6.029,13.2951,4.59996,2471.957,2017-10-23T08:28:46Z
2017-10-23T06:28:56Z,42.805,6.029,13.2947,4.60035,2471.957,2017-10-23T08:30:21Z
2017-10-23T06:30:31Z,42.805,6.029,13.2946,4.60030,2471.964,2017-10-23T08:31:56Z
2017-10-23T06:32:05Z,42.805,6.029,13.2972,4.59992,2471.957,2017-10-23T08:33:31Z
2017-10-23T06:33:40Z,42.805,6.029,13.2968,4.59989,2471.979,2017-10-23T08:35:06Z
2017-10-23T06:35:15Z,42.805,6.029,13.2953,4.59986,2471.979,2017-10-23T08:36:40Z
2017-10-23T06:36:50Z,42.805,6.029,13.2954,4.60000,2471.957,2017-10-23T08:38:15Z
2017-10-23T06:38:25Z,42.805,6.029,13.2944,4.60012,2471.957,2017-10-23T08:39:50Z
2017-10-23T06:40:00Z,42.805,6.029,13.2954,4.59996,2471.957,2017-10-23T08:41:25Z
2017-10-23T06:41:34Z,42.805,6.029,13.2952,4.59990,2471.957,2017-10-23T08:43:00Z
2017-10-23T06:43:09Z,42.805,6.029,13.2939,4.59991,2471.979,2017-10-23T08:44:35Z
2017-10-23T06:44:44Z,42.805,6.029,13.2943,4.59987,2471.957,2017-10-23T08:46:09Z
2017-10-23T06:46:19Z,42.805,6.029,13.2953,4.59984,2472.002,2017-10-23T08:47:44Z
2017-10-23T06:47:54Z,42.805,6.029,13.2943,4.59985,2472.002,2017-10-23T08:49:19Z
2017-10-23T06:49:29Z,42.805,6.029,13.2951,4.59983,2471.964,2017-10-23T08:50:54Z
2017-10-23T06:51:03Z,42.805,6.029,13.2955,4.59981,2471.919,2017-10-23T08:52:29Z
2017-10-23T06:52:38Z,42.805,6.029,13.2957,4.59983,2472.002,2017-10-23T08:54:04Z
2017-10-23T06:54:13Z,42.805,6.029,13.2962,4.59983,2472.002,2017-10-23T08:55:38Z
2017-10-23T06:55:48Z,42.805,6.029,13.2969,4.59981,2471.979,2017-10-23T08:57:13Z
2017-10-23T06:57:23Z,42.805,6.029,13.2944,4.59989,2472.002,2017-10-23T08:58:48Z
2017-10-23T06:58:58Z,42.805,6.029,13.2936,4.59977,2471.979,2017-10-23T09:00:23Z
2017-10-23T07:00:32Z,42.805,6.029,13.2935,4.59973,2471.979,2017-10-23T09:01:58Z
2017-10-23T07:02:07Z,42.805,6.029,13.2940,4.59978,2471.979,2017-10-23T09:03:33Z
2017-10-23T07:03:42Z,42.805,6.029,13.2942,4.59972,2472.002,2017-10-23T09:05:07Z
2017-10-23T07:05:17Z,42.805,6.029,13.2937,4.59971,2471.964,2017-10-23T09:06:42Z
2017-10-23T07:06:52Z,42.805,6.029,13.2942,4.59978,2472.002,2017-10-23T09:08:17Z
2017-10-23T07:08:27Z,42.805,6.029,13.2936,4.59985,2472.002,2017-10-23T09:09:52Z
2017-10-23T07:10:01Z,42.805,6.029,13.2939,4.59978,2472.002,2017-10-23T09:11:27Z
2017-10-23T07:11:36Z,42.805,6.029,13.2941,4.59994,2472.002,2017-10-23T09:13:02Z
2017-10-23T07:13:11Z,42.805,6.029,13.2943,4.60001,2472.01,2017-10-23T09:14:36Z
2017-10-23T07:14:46Z,42.805,6.029,13.2946,4.59978,2472.01,2017-10-23T09:16:11Z
2017-10-23T07:16:21Z,42.805,6.029,13.2948,4.59973,2472.002,2017-10-23T09:17:46Z
2017-10-23T07:17:56Z,42.805,6.029,13.2944,4.59980,2472.002,2017-10-23T09:19:21Z
2017-10-23T07:19:30Z,42.805,6.029,13.2954,4.60004,2472.01,2017-10-23T09:20:56Z
2017-10-23T07:21:05Z,42.805,6.029,13.2955,4.60021,2472.047,2017-10-23T09:22:31Z
2017-10-23T07:22:40Z,42.805,6.029,13.2958,4.60001,2472.002,2017-10-23T09:24:05Z
2017-10-23T07:24:15Z,42.805,6.029,13.2965,4.59994,2472.024,2017-10-23T09:25:40Z
2017-10-23T07:25:50Z,42.805,6.029,13.2960,4.59999,2471.987,2017-10-23T09:27:15Z
2017-10-23T07:27:25Z,42.805,6.029,13.2963,4.59997,2472.024,2017-10-23T09:28:50Z
2017-10-23T07:28:59Z,42.805,6.029,13.2951,4.59998,2471.987,2017-10-23T09:30:25Z
2017-10-23T07:30:34Z,42.805,6.029,13.2950,4.59998,2472.002,2017-10-23T09:32:00Z
2017-10-23T07:32:09Z,42.805,6.029,13.2945,4.60009,2472.002,2017-10-23T09:33:34Z
2017-10-23T07:33:44Z,42.805,6.029,13.2941,4.60004,2472.01,2017-10-23T09:35:09Z
2017-10-23T07:35:19Z,42.805,6.029,13.2940,4.60007,2472.024,2017-10-23T09:36:44Z
2017-10-23T07:36:54Z,42.805,6.029,13.2939,4.59992,2472.024,2017-10-23T09:38:19Z
2017-10-23T07:38:28Z,42.805,6.029,13.2944,4.59987,2472.047,2017-10-23T09:39:54Z
2017-10-23T07:40:03Z,42.805,6.029,13.2939,4.59989,2472.047,2017-10-23T09:41:29Z
2017-10-23T07:41:38Z,42.805,6.029,13.2945,4.59984,2472.047,2017-10-23T09:43:03Z
2017-10-23T07:43:13Z,42.805,6.029,13.2943,4.59986,2472.047,2017-10-23T09:44:38Z
2017-10-23T07:44:48Z,42.805,6.029,13.2944,4.59986,2472.01,2017-10-23T09:46:13Z